GW2585 Weather Reports


time (UTC)temp
C
wind
direction
speed
KPH
gust
KPH
rain 1hr
cm
rain 24hr
cm
rain mn
cm
humidity
%
barometer
mb
20260507145136 17 76 1.6 3.2 0.00 0.00 0.00 51 1018.5
20260507144631 17 123 1.6 1.6 0.00 0.00 0.00 48 1018.6
20260507144130 17 80 1.6 3.2 0.00 0.00 0.00 49 1018.7
20260507143626 17 135 0.0 1.6 0.00 0.00 0.00 53 1018.7
20260507143124 17 29 0.0 0.0 0.00 0.00 0.00 51 1018.7
20260507142619 16 80 0.0 1.6 0.00 0.00 0.00 54 1019.0
20260507142116 16 82 0.0 0.0 0.00 0.00 0.00 58 1018.9
20260507141612 15 113 0.0 1.6 0.00 0.00 0.00 60 1019.2
20260507141109 15 142 0.0 0.0 0.00 0.00 0.00 62 1019.0
20260507140605 14 119 0.0 0.0 0.00 0.00 0.00 63 1019.1
20260507135600 13 87 0.0 0.0 0.00 0.00 0.00 67 1019.1
20260507135057 12 81 0.0 1.6 0.00 0.00 0.00 70 1019.0
20260507134553 12 117 0.0 0.0 0.00 0.00 0.00 73 1018.9
20260507134049 11 63 0.0 0.0 0.00 0.00 0.00 75 1019.0
20260507133540 11 25 0.0 1.6 0.00 0.00 0.00 79 1019.1
20260507133038 10 63 0.0 0.0 0.00 0.00 0.00 84 1018.9
20260507132534 10 64 0.0 0.0 0.00 0.00 0.00 87 1018.9
20260507132031 10 73 0.0 0.0 0.00 0.00 0.00 91 1018.9
20260507131528 9 82 0.0 0.0 0.00 0.00 0.00 93 1018.9
20260507131025 8 69 0.0 0.0 0.00 0.00 0.00 95 1019.0
20260507130522 8 35 0.0 1.6 0.00 0.00 0.00 96 1018.8
20260507130020 8 71 0.0 0.0 0.00 0.00 0.00 96 1018.9
20260507125518 7 113 0.0 0.0 0.00 0.00 0.00 96 1018.8
20260507125015 7 74 0.0 0.0 0.00 0.00 0.00 96 1018.8
20260507124512 6 74 0.0 0.0 0.00 0.00 0.00 96 1018.8
20260507124010 6 76 0.0 0.0 0.00 0.00 0.00 96 1018.8
20260507123507 5 127 0.0 0.0 0.00 0.00 0.00 96 1018.7
20260507123003 5 127 0.0 0.0 0.00 0.00 0.00 96 1018.4
20260507122458 5 127 0.0 0.0 0.00 0.00 0.00 96 1018.2
20260507121949 5 30 0.0 0.0 0.00 0.00 0.00 96 1018.6
20260507121445 5 30 0.0 0.0 0.00 0.00 0.00 96 1018.2
20260507120941 4 30 0.0 0.0 0.00 0.00 0.00 96 1018.2
20260507120438 4 30 0.0 0.0 0.00 0.00 0.00 96 1018.2
20260507115935 4 29 0.0 0.0 0.00 0.00 0.00 96 1018.4
20260507115430 4 29 0.0 0.0 0.00 0.00 0.00 96 1018.2
20260507114926 4 29 0.0 0.0 0.00 0.00 0.00 95 1018.0
20260507114423 4 29 0.0 0.0 0.00 0.00 0.00 95 1017.9
20260507113920 4 29 0.0 0.0 0.00 0.00 0.00 95 1018.1
20260507113417 4 29 0.0 0.0 0.00 0.00 0.00 95 1017.9
20260507112915 4 29 0.0 0.0 0.00 0.00 0.00 95 1018.1
20260507112412 4 29 0.0 0.0 0.00 0.00 0.00 95 1018.0
20260507111909 4 29 0.0 0.0 0.00 0.00 0.00 95 1018.1
20260507111406 4 29 0.0 0.0 0.00 0.00 0.00 95 1017.9
20260507110902 4 29 0.0 0.0 0.00 0.00 0.00 95 1018.0
20260507110358 4 29 0.0 0.0 0.00 0.00 0.00 95 1017.8
20260507105855 4 29 0.0 0.0 0.00 0.00 0.00 95 1017.8
20260507105352 5 29 0.0 0.0 0.00 0.00 0.00 95 1018.0
20260507104849 5 29 0.0 0.0 0.00 0.00 0.00 95 1017.9
20260507104346 5 29 0.0 0.0 0.00 0.00 0.00 94 1017.9
20260507103842 4 29 0.0 0.0 0.00 0.00 0.00 94 1017.8
20260507103338 4 29 0.0 0.0 0.00 0.00 0.00 94 1018.0
20260507102835 4 29 0.0 0.0 0.00 0.00 0.00 94 1017.9
20260507102331 4 29 0.0 0.0 0.00 0.00 0.00 94 1018.1
20260507101827 5 29 0.0 0.0 0.00 0.00 0.00 94 1018.1
20260507101322 5 29 0.0 0.0 0.00 0.00 0.00 94 1018.0
20260507100819 5 29 0.0 0.0 0.00 0.00 0.00 94 1018.1
20260507100317 5 29 0.0 0.0 0.00 0.00 0.00 93 1018.1
20260507095815 5 29 0.0 0.0 0.00 0.00 0.00 93 1018.2
20260507095311 5 29 0.0 0.0 0.00 0.00 0.00 93 1017.9
20260507094808 5 29 0.0 0.0 0.00 0.00 0.00 93 1018.1
20260507094305 5 29 0.0 0.0 0.00 0.00 0.00 93 1018.0
20260507093802 5 29 0.0 0.0 0.00 0.00 0.00 93 1018.1
20260507093301 5 29 0.0 0.0 0.00 0.00 0.00 93 1018.1
20260507092758 5 29 0.0 0.0 0.00 0.00 0.00 93 1018.2
20260507092254 5 29 0.0 0.0 0.00 0.00 0.00 93 1018.4
20260507091751 5 29 0.0 0.0 0.00 0.00 0.00 93 1018.0
20260507091248 5 29 0.0 0.0 0.00 0.00 0.00 93 1018.1
20260507090748 5 29 0.0 0.0 0.00 0.00 0.00 93 1017.8
20260507090244 5 29 0.0 0.0 0.00 0.00 0.00 93 1017.6
20260507085742 5 29 0.0 0.0 0.00 0.00 0.00 93 1017.9
20260507085239 5 29 0.0 0.0 0.00 0.00 0.00 92 1017.8
20260507084736 5 29 0.0 0.0 0.00 0.00 0.00 92 1017.8
20260507084232 5 29 0.0 0.0 0.00 0.00 0.00 92 1018.0
20260507083730 5 29 0.0 0.0 0.00 0.00 0.00 92 1017.9
20260507083226 5 29 0.0 0.0 0.00 0.00 0.00 91 1017.7
20260507082722 5 29 0.0 0.0 0.00 0.00 0.00 91 1018.0
20260507082218 5 29 0.0 0.0 0.00 0.00 0.00 91 1018.4
20260507081715 6 29 0.0 0.0 0.00 0.00 0.00 90 1018.1
20260507081211 6 29 0.0 0.0 0.00 0.00 0.00 90 1018.1
20260507080708 6 29 0.0 0.0 0.00 0.00 0.00 90 1017.9
20260507080204 6 29 0.0 0.0 0.00 0.00 0.00 90 1018.1
20260507075659 6 29 0.0 0.0 0.00 0.00 0.00 90 1018.4
20260507075156 6 29 0.0 0.0 0.00 0.00 0.00 90 1018.1
20260507074652 6 29 0.0 0.0 0.00 0.00 0.00 90 1018.2
20260507074151 6 29 0.0 0.0 0.00 0.00 0.00 89 1018.8
20260507073647 6 29 0.0 0.0 0.00 0.00 0.00 90 1018.7
20260507073143 6 29 0.0 0.0 0.00 0.00 0.00 90 1018.8
20260507072641 6 29 0.0 0.0 0.00 0.00 0.00 90 1018.5
20260507072138 6 29 0.0 0.0 0.00 0.00 0.00 90 1018.4
20260507071636 6 29 0.0 0.0 0.00 0.00 0.00 90 1017.8
20260507071132 6 29 0.0 0.0 0.00 0.00 0.00 89 1017.8
20260507070629 7 123 0.0 0.0 0.00 0.00 0.00 89 1017.8
20260507070126 7 123 0.0 0.0 0.00 0.00 0.00 89 1018.0
20260507065622 7 114 0.0 0.0 0.00 0.00 0.00 89 1017.8
20260507065119 7 114 0.0 0.0 0.00 0.00 0.00 88 1018.1
20260507064617 7 113 0.0 0.0 0.00 0.00 0.00 88 1017.8
20260507064116 6 113 0.0 0.0 0.00 0.00 0.00 88 1017.9
20260507063613 6 113 0.0 0.0 0.00 0.00 0.00 88 1017.9
20260507063110 6 113 0.0 0.0 0.00 0.00 0.00 88 1017.9
20260507062606 6 113 0.0 0.0 0.00 0.00 0.00 87 1018.2
20260507062104 7 113 0.0 0.0 0.00 0.00 0.00 87 1018.4
20260507061601 7 113 0.0 0.0 0.00 0.00 0.00 86 1018.2
20260507061059 7 113 0.0 0.0 0.00 0.00 0.00 86 1018.2
20260507060557 7 113 0.0 0.0 0.00 0.00 0.00 85 1018.2
20260507060053 7 113 0.0 0.0 0.00 0.00 0.00 84 1018.7
20260507055548 7 113 0.0 0.0 0.00 0.00 0.00 84 1018.8
20260507055045 7 113 0.0 0.0 0.00 0.00 0.00 83 1018.9
20260507054541 8 113 0.0 0.0 0.00 0.00 0.00 83 1019.1
20260507054038 7 113 0.0 0.0 0.00 0.00 0.00 82 1019.0
20260507053536 8 113 0.0 0.0 0.00 0.00 0.00 82 1019.0
20260507053035 7 113 0.0 0.0 0.00 0.00 0.00 82 1019.0
20260507052532 7 113 0.0 0.0 0.00 0.00 0.00 81 1018.9
20260507052028 7 113 0.0 0.0 0.00 0.00 0.00 81 1018.9
20260507051526 7 113 0.0 0.0 0.00 0.00 0.00 81 1018.8
20260507051023 7 113 0.0 0.0 0.00 0.00 0.00 81 1018.6
20260507050519 7 113 0.0 0.0 0.00 0.00 0.00 80 1018.4
20260507050016 8 113 0.0 0.0 0.00 0.00 0.00 80 1018.4
20260507045513 8 113 0.0 0.0 0.00 0.00 0.00 80 1018.0
20260507045010 8 113 0.0 0.0 0.00 0.00 0.00 79 1018.1
20260507044506 8 113 0.0 0.0 0.00 0.00 0.00 79 1018.1
20260507044003 8 113 0.0 0.0 0.00 0.00 0.00 78 1018.1
20260507043459 8 113 0.0 0.0 0.00 0.00 0.00 78 1018.0
20260507042955 8 113 0.0 0.0 0.00 0.00 0.00 78 1017.9
20260507042452 8 113 0.0 0.0 0.00 0.00 0.00 78 1017.8
20260507041948 8 113 0.0 1.6 0.00 0.00 0.00 77 1017.7
20260507041445 8 113 0.0 0.0 0.00 0.00 0.00 77 1017.7
20260507040942 8 113 0.0 0.0 0.00 0.00 0.00 76 1017.8
20260507040438 9 113 0.0 0.0 0.00 0.00 0.00 75 1018.0
20260507035934 9 113 0.0 0.0 0.00 0.00 0.00 75 1017.6
20260507035431 10 113 0.0 0.0 0.00 0.00 0.00 74 1017.8
20260507034927 10 113 0.0 0.0 0.00 0.00 0.00 74 1018.1
20260507034424 10 113 0.0 0.0 0.00 0.00 0.00 74 1017.9
20260507033922 10 113 0.0 0.0 0.00 0.00 0.00 73 1017.9
20260507033420 10 113 0.0 0.0 0.00 0.00 0.00 71 1017.5
20260507032917 10 113 0.0 0.0 0.00 0.00 0.00 71 1017.6
20260507032414 10 114 0.0 0.0 0.00 0.00 0.00 70 1017.4
20260507031910 10 114 0.0 0.0 0.00 0.00 0.00 70 1017.6
20260507031406 10 114 0.0 0.0 0.00 0.00 0.00 70 1017.3
20260507030903 10 113 0.0 0.0 0.00 0.00 0.00 69 1017.4
20260507030401 10 113 0.0 0.0 0.00 0.00 0.00 70 1017.2
20260507025857 11 113 0.0 0.0 0.00 0.00 0.00 69 1017.3
20260507025355 11 113 0.0 0.0 0.00 0.00 0.00 68 1017.0
20260507024853 11 113 0.0 0.0 0.00 0.00 0.00 68 1017.3
20260507024350 11 113 0.0 0.0 0.00 0.00 0.00 67 1017.3
20260507023845 12 113 0.0 0.0 0.00 0.00 0.00 66 1017.2
20260507023342 12 114 0.0 0.0 0.00 0.00 0.00 64 1016.9
20260507022839 12 114 0.0 0.0 0.00 0.00 0.00 63 1016.9
20260507022336 12 127 0.0 0.0 0.00 0.00 0.00 63 1017.0
20260507021832 13 126 0.0 0.0 0.00 0.00 0.00 61 1016.9
20260507021327 13 127 0.0 0.0 0.00 0.00 0.00 61 1016.9
20260507020826 13 127 0.0 0.0 0.00 0.00 0.00 61 1016.9
20260507020322 13 126 0.0 0.0 0.00 0.00 0.00 61 1016.7
20260507015819 13 126 0.0 0.0 0.00 0.00 0.00 59 1016.7
20260507015317 13 124 0.0 0.0 0.00 0.00 0.00 57 1016.7
20260507014814 14 123 0.0 0.0 0.00 0.00 0.00 56 1016.6
20260507014310 14 129 0.0 0.0 0.00 0.00 0.00 56 1016.6
20260507013806 15 122 0.0 0.0 0.00 0.00 0.00 55 1016.5
20260507013304 15 117 1.6 1.6 0.00 0.00 0.00 54 1016.4
20260507012801 15 80 1.6 3.2 0.00 0.00 0.00 52 1016.7
20260507012256 15 165 0.0 0.0 0.00 0.00 0.00 52 1016.6
20260507011754 15 71 0.0 0.0 0.00 0.00 0.00 51 1016.4
20260507011251 15 33 1.6 1.6 0.00 0.00 0.00 51 1016.6
20260507010750 15 125 0.0 0.0 0.00 0.00 0.00 52 1016.4
20260507010246 15 139 0.0 0.0 0.00 0.00 0.00 51 1016.4
20260507005744 15 117 0.0 0.0 0.00 0.00 0.00 52 1016.2
20260507005240 15 123 0.0 1.6 0.00 0.00 0.00 50 1016.3
20260507004737 15 93 0.0 1.6 0.00 0.00 0.00 50 1016.5
20260507004235 15 126 0.0 0.0 0.00 0.00 0.00 50 1016.2
20260507003730 16 145 0.0 1.6 0.00 0.00 0.00 48 1016.3
20260507003226 16 115 0.0 1.6 0.00 0.00 0.00 48 1016.2
20260507002722 16 127 0.0 0.0 0.00 0.00 0.00 48 1016.1
20260507002219 17 169 0.0 0.0 0.00 0.00 0.00 47 1016.1
20260507001715 17 122 0.0 0.0 0.00 0.00 0.00 45 1016.2
20260507001213 18 212 0.0 0.0 0.00 0.00 0.00 44 1015.9
20260507000709 18 147 0.0 0.0 0.00 0.00 0.00 45 1016.1
20260507000205 17 138 1.6 1.6 0.00 0.00 0.00 45 1016.1
20260506235702 18 95 0.0 0.0 0.00 0.00 0.00 44 1016.0
20260506235157 18 278 3.2 4.8 0.00 0.00 0.00 42 1015.8
20260506234654 18 162 0.0 1.6 0.00 0.00 0.00 41 1016.0
20260506234151 18 167 1.6 1.6 0.00 0.00 0.00 42 1015.9
20260506233649 18 140 0.0 1.6 0.00 0.00 0.00 41 1015.9
20260506233145 18 123 3.2 3.2 0.00 0.00 0.00 41 1015.7
20260506232641 18 162 1.6 1.6 0.00 0.00 0.00 42 1015.8
20260506232137 18 291 1.6 3.2 0.00 0.00 0.00 40 1015.5
20260506231634 19 134 0.0 1.6 0.00 0.00 0.00 40 1015.6
20260506231133 18 232 3.2 4.8 0.00 0.00 0.00 42 1015.7
20260506230629 19 109 1.6 3.2 0.00 0.00 0.00 42 1015.4
20260506230126 19 208 1.6 1.6 0.00 0.00 0.00 42 1015.5
20260506225623 18 133 0.0 1.6 0.00 0.00 0.00 42 1015.2
20260506225119 18 144 1.6 1.6 0.00 0.00 0.00 43 1015.2
20260506224616 18 185 1.6 1.6 0.00 0.00 0.00 44 1015.1
20260506224113 18 190 1.6 3.2 0.00 0.00 0.00 46 1015.1
20260506223609 18 80 1.6 1.6 0.00 0.00 0.00 42 1014.9
20260506223105 18 165 4.8 9.7 0.00 0.00 0.00 43 1015.1
20260506222602 18 73 1.6 3.2 0.00 0.00 0.00 45 1014.7
20260506222058 18 21 3.2 4.8 0.00 0.00 0.00 44 1014.8
20260506221556 18 188 1.6 3.2 0.00 0.00 0.00 43 1014.8
20260506221054 18 167 0.0 1.6 0.00 0.00 0.00 45 1014.6
20260506220550 18 289 3.2 3.2 0.00 0.00 0.00 45 1014.7
20260506220045 18 210 3.2 4.8 0.00 0.00 0.00 42 1014.6
20260506215542 18 134 1.6 1.6 0.00 0.00 0.00 44 1014.7
20260506215038 20 84 3.2 4.8 0.00 0.00 0.00 42 1014.6
20260506214535 20 108 1.6 3.2 0.00 0.00 0.00 41 1014.8
20260506214033 20 261 1.6 3.2 0.00 0.00 0.00 41 1014.9
20260506213530 20 225 1.6 1.6 0.00 0.00 0.00 42 1015.0
20260506213027 20 158 1.6 1.6 0.00 0.00 0.00 41 1015.0
20260506212524 20 215 0.0 1.6 0.00 0.00 0.00 43 1015.0
20260506212019 20 2 1.6 1.6 0.00 0.00 0.00 43 1015.0
20260506211515 18 131 0.0 0.0 0.00 0.00 0.00 45 1015.1
20260506211013 18 134 0.0 1.6 0.00 0.00 0.00 45 1015.1
20260506210509 18 168 1.6 1.6 0.00 0.00 0.00 44 1015.2
20260506210006 17 119 1.6 1.6 0.00 0.00 0.00 46 1015.3
20260506205502 18 136 1.6 1.6 0.00 0.00 0.00 47 1015.3
20260506204958 18 132 4.8 6.4 0.00 0.00 0.00 45 1015.2
20260506204456 18 358 0.0 0.0 0.00 0.00 0.00 44 1015.2
20260506203953 18 174 3.2 3.2 0.00 0.00 0.00 46 1015.5
20260506203450 18 296 1.6 1.6 0.00 0.00 0.00 49 1015.4
20260506202947 18 106 1.6 1.6 0.00 0.00 0.00 46 1015.4
20260506202444 18 172 1.6 1.6 0.00 0.00 0.00 45 1015.4
20260506201940 18 122 1.6 3.2 0.00 0.00 0.00 45 1015.5
20260506201438 17 119 0.0 1.6 0.00 0.00 0.00 47 1015.6
20260506200934 18 151 3.2 4.8 0.00 0.00 0.00 46 1015.4
20260506200431 17 123 1.6 3.2 0.00 0.00 0.00 46 1015.5
20260506195927 17 172 1.6 1.6 0.00 0.00 0.00 45 1015.7
20260506195425 17 170 0.0 1.6 0.00 0.00 0.00 47 1015.9
20260506194921 17 294 4.8 9.7 0.00 0.00 0.00 46 1015.8
20260506194418 17 37 0.0 0.0 0.00 0.00 0.00 48 1015.7
20260506193915 18 132 3.2 3.2 0.00 0.00 0.00 48 1015.8
20260506193412 18 175 1.6 3.2 0.00 0.00 0.00 46 1015.7
20260506192908 18 148 3.2 4.8 0.00 0.00 0.00 44 1015.8
20260506192406 18 122 3.2 3.2 0.00 0.00 0.00 43 1015.5
20260506191903 18 145 1.6 3.2 0.00 0.00 0.00 45 1015.9
20260506191359 18 321 3.2 3.2 0.00 0.00 0.00 45 1016.1
20260506190856 18 175 3.2 6.4 0.00 0.00 0.00 44 1016.0
20260506190352 17 162 1.6 1.6 0.00 0.00 0.00 46 1015.9
20260506185849 17 185 4.8 6.4 0.00 0.00 0.00 46 1016.1
20260506185346 18 347 0.0 1.6 0.00 0.00 0.00 44 1016.3
20260506184843 18 208 1.6 3.2 0.00 0.00 0.00 44 1016.4
20260506184340 18 296 6.4 9.7 0.00 0.00 0.00 45 1016.4
20260506183837 18 170 1.6 3.2 0.00 0.00 0.00 46 1016.5
20260506183333 18 87 0.0 1.6 0.00 0.00 0.00 49 1016.3
20260506182830 18 17 1.6 1.6 0.00 0.00 0.00 46 1016.5
20260506182327 18 177 3.2 4.8 0.00 0.00 0.00 45 1016.6
20260506181825 18 43 1.6 1.6 0.00 0.00 0.00 47 1016.5
20260506181323 17 115 3.2 4.8 0.00 0.00 0.00 46 1016.6
20260506180820 17 152 1.6 3.2 0.00 0.00 0.00 46 1016.7
20260506180316 17 203 3.2 4.8 0.00 0.00 0.00 44 1016.8
20260506175812 17 145 3.2 4.8 0.00 0.00 0.00 45 1016.8
20260506175309 17 298 4.8 12.9 0.00 0.00 0.00 45 1016.7
20260506174806 17 99 3.2 6.4 0.00 0.00 0.00 44 1016.8
20260506174303 17 127 1.6 1.6 0.00 0.00 0.00 47 1016.7
20260506173801 17 172 3.2 4.8 0.00 0.00 0.00 46 1016.9
20260506173257 17 94 3.2 4.8 0.00 0.00 0.00 45 1017.0
20260506172754 16 33 4.8 12.9 0.00 0.00 0.00 47 1017.0
20260506172251 17 99 1.6 1.6 0.00 0.00 0.00 48 1016.9
20260506171749 17 124 3.2 4.8 0.00 0.00 0.00 46 1016.8
20260506171246 17 137 3.2 4.8 0.00 0.00 0.00 46 1016.8
20260506170743 17 152 6.4 9.7 0.00 0.00 0.00 46 1017.1
20260506170239 16 159 4.8 6.4 0.00 0.00 0.00 47 1017.2
20260506165738 16 26 3.2 3.2 0.00 0.00 0.00 49 1017.0
20260506165235 16 166 3.2 3.2 0.00 0.00 0.00 49 1017.1
20260506164732 16 113 3.2 3.2 0.00 0.00 0.00 51 1017.0
20260506164229 16 159 3.2 3.2 0.00 0.00 0.00 49 1017.1
20260506163725 16 118 1.6 3.2 0.00 0.00 0.00 49 1017.2
20260506163220 16 133 3.2 3.2 0.00 0.00 0.00 51 1017.2
20260506162717 15 98 3.2 4.8 0.00 0.00 0.00 53 1017.1
20260506162214 15 155 3.2 6.4 0.00 0.00 0.00 53 1017.1
20260506161706 16 215 1.6 3.2 0.00 0.00 0.00 52 1017.3
20260506161203 15 98 1.6 3.2 0.00 0.00 0.00 58 1017.3
20260506160700 15 113 1.6 1.6 0.00 0.00 0.00 56 1017.1
20260506160157 15 107 3.2 3.2 0.00 0.00 0.00 55 1017.2
20260506155655 15 130 1.6 3.2 0.00 0.00 0.00 59 1017.3
20260506155152 15 203 0.0 1.6 0.00 0.00 0.00 59 1016.8
20260506153254 15 145 1.6 1.6 0.00 0.00 0.00 59 1016.9
20260506152751 15 71 1.6 3.2 0.00 0.00 0.00 60 1017.2
20260506152248 14 354 3.2 4.8 0.00 0.00 0.00 59 1016.9
20260506151747 13 142 1.6 1.6 0.00 0.00 0.00 63 1016.8
20260506151243 13 153 1.6 3.2 0.00 0.00 0.00 65 1016.8
20260506150740 12 127 3.2 3.2 0.00 0.00 0.00 65 1017.1
20260506150237 12 114 3.2 4.8 0.00 0.00 0.00 65 1016.9
20260506145734 12 48 1.6 1.6 0.00 0.00 0.00 67 1016.8